Columbia / Mount Pleasant, TN

3:41 AM CST on November 22, 2019 (GMT -0600)
Maury County

Weather History for KMRC - October, 2019

Change the Weather History Date:

Friday, October 18, 2019

  Actual Average (WUND) Record (WUND)
Temperature  
Mean Temperature 53 °F -  
Max Temperature 69 °F - - (-1)
Min Temperature 37 °F - - (-1)
Degree Days  
Heating Degree Days 12    
Growing Degree Days 3 (Base 50)    
Moisture  
Dew Point 41 °F    
Average Humidity 77    
Maximum Humidity 100    
Minimum Humidity 28    
Precipitation  
Precipitation 0.00 in - - ()
Sea Level Pressure  
Sea Level Pressure 29.97 in    
Wind  
Wind Speed 1 mph (East)    
Max Wind Speed 10 mph    
Max Gust Speed 16 mph    
Visibility 8 miles    
Events Fog    
Averages and records for this station are not official NWS values.
T = Trace of Precipitation, MM = Missing Value Source: NWS Daily Summary

Daily Weather History Graph

Daily Weather History Graph

Search for Another Location

Airport or City:

Astronomy

Oct. 18, 2019 Rise Set
Actual Time 6:57 AM CDT 6:09 PM CDT
Civil Twilight 6:31 AM CDT 6:35 PM CDT
Nautical Twilight 6:02 AM CDT 7:05 PM CDT
Astronomical Twilight 5:32 AM CDT 7:34 PM CDT
Moon 9:33 PM CDT (10/18) 11:22 AM CDT (10/18)
Length of Visible Light 12h 03m
Length of Day
11h 12m
Waning Gibbous, 78% of the Moon is Illuminated
Oct 18
Waning Gibbous
Oct 21
Last Quarter
Oct 27
New
Nov 4
First Quarter
Nov 12
Full

Hourly Weather History & Observations

Time (CDT) Temp. Windchill Dew Point Humidity Pressure Visibility Wind Dir Wind Speed Gust Speed Precip Events Conditions
12:15 AM 41.0 °F - 41.0 °F 100% 30.01 in 10.0 mi Calm Calm - N/A   Clear
12:35 AM 41.0 °F - 41.0 °F 100% 30.01 in 10.0 mi Calm Calm - N/A   Mostly Cloudy
12:55 AM 41.0 °F - 41.0 °F 100% 30.01 in 10.0 mi Calm Calm - N/A   Overcast
1:15 AM 41.0 °F - 41.0 °F 100% 30.01 in 10.0 mi Calm Calm - N/A   Partly Cloudy
1:35 AM 41.0 °F - 41.0 °F 100% 30.01 in 10.0 mi Calm Calm - N/A   Clear
1:55 AM 39.2 °F - 39.2 °F 100% 30.01 in 10.0 mi Calm Calm - N/A   Clear
2:15 AM 41.0 °F - 41.0 °F 100% 30.02 in 6.0 mi Calm Calm - N/A   Clear
2:35 AM 41.0 °F - 41.0 °F 100% 30.01 in 2.0 mi Calm Calm - N/A   Partly Cloudy
2:55 AM 39.2 °F - 39.2 °F 100% 30.01 in 6.0 mi Calm Calm - N/A   Clear
3:15 AM 37.4 °F 33.8 °F 37.4 °F 100% 30.02 in 3.0 mi SW 4.6 mph - N/A   Scattered Clouds
3:35 AM 39.2 °F - 39.2 °F 100% 30.01 in 6.0 mi Calm Calm - N/A   Mostly Cloudy
3:55 AM 39.2 °F - 39.2 °F 100% 30.01 in 7.0 mi Calm Calm - N/A   Partly Cloudy
4:15 AM 39.2 °F - 39.2 °F 100% 30.02 in 9.0 mi Calm Calm - N/A   Clear
4:35 AM 37.4 °F - 37.4 °F 100% 30.02 in 9.0 mi Calm Calm - N/A   Scattered Clouds
4:55 AM 37.4 °F - 37.4 °F 100% 30.01 in 3.0 mi Calm Calm - N/A   Mostly Cloudy
5:15 AM 37.4 °F - 37.4 °F 100% 30.02 in 10.0 mi Calm Calm - N/A   Mostly Cloudy
5:35 AM 37.4 °F 34.9 °F 37.4 °F 100% 30.02 in 9.0 mi NE 3.5 mph - N/A   Overcast
5:55 AM 37.4 °F - 37.4 °F 100% 30.02 in 7.0 mi Calm Calm - N/A   Overcast
6:15 AM 37.4 °F - 37.4 °F 100% 30.02 in 1.0 mi Calm Calm - N/A   Overcast
6:35 AM 37.4 °F - 37.4 °F 100% 30.02 in 0.5 mi Calm Calm - N/A   Overcast
6:55 AM 37.4 °F - 37.4 °F 100% 30.03 in 0.2 mi Calm Calm - N/A Fog Fog
7:15 AM 37.4 °F - 37.4 °F 100% 30.04 in 0.2 mi Calm Calm - N/A Fog Fog
7:35 AM 37.4 °F - 37.4 °F 100% 30.04 in 0.2 mi Calm Calm - N/A Fog Fog
7:55 AM 37.4 °F - 37.4 °F 100% 30.04 in 0.2 mi Calm Calm - N/A Fog Fog
8:15 AM 39.2 °F - 39.2 °F 100% 30.04 in 0.5 mi Calm Calm - N/A   Overcast
8:35 AM 41.0 °F - 41.0 °F 100% 30.04 in 3.0 mi Calm Calm - N/A   Mostly Cloudy
8:55 AM 42.8 °F - 42.8 °F 100% 30.05 in 10.0 mi Calm Calm - N/A   Clear
9:15 AM 48.2 °F - 48.2 °F 100% 30.05 in 10.0 mi Calm Calm - N/A   Clear
9:35 AM 51.8 °F - 48.2 °F 88% 30.04 in 10.0 mi NE 6.9 mph - N/A   Clear
9:55 AM 53.6 °F - 44.6 °F 72% 30.04 in 10.0 mi ENE 10.4 mph - N/A   Clear
10:15 AM 57.2 °F - 44.6 °F 63% 30.03 in 10.0 mi ENE 8.1 mph - N/A   Clear
10:35 AM 57.2 °F - 41.0 °F 55% 30.03 in 10.0 mi East 9.2 mph 16.1 mph N/A   Clear
10:55 AM 59.0 °F - 41.0 °F 51% 30.02 in 10.0 mi ENE 9.2 mph - N/A   Clear
11:15 AM 60.8 °F - 39.2 °F 45% 30.02 in 10.0 mi NE 6.9 mph - N/A   Clear
11:35 AM 60.8 °F - 39.2 °F 45% 30.01 in 10.0 mi NNE 5.8 mph - N/A   Clear
11:55 AM 62.6 °F - 39.2 °F 42% 30.01 in 10.0 mi SSE 4.6 mph - N/A   Clear
12:15 PM 64.4 °F - 37.4 °F 37% 30.00 in 10.0 mi Variable 4.6 mph - N/A   Clear
12:35 PM 64.4 °F - 35.6 °F 34% 30.00 in 10.0 mi ESE 8.1 mph - N/A   Clear
12:55 PM 66.2 °F - 37.4 °F 35% 29.98 in 10.0 mi East 5.8 mph - N/A   Clear
1:15 PM 68.0 °F - 35.6 °F 30% 29.98 in 10.0 mi Calm Calm - N/A   Clear
1:35 PM 68.0 °F - 35.6 °F 30% 29.97 in 10.0 mi Variable 6.9 mph - N/A   Clear
1:55 PM 69.8 °F - 37.4 °F 31% 29.95 in 10.0 mi Variable 4.6 mph - N/A   Clear
2:35 PM 69.8 °F - 35.6 °F 28% 29.95 in 10.0 mi Calm Calm - N/A   Clear
2:55 PM 69.8 °F - 35.6 °F 28% 29.94 in 10.0 mi SE 5.8 mph - N/A   Clear
3:15 PM 68.0 °F - 37.4 °F 33% 29.93 in 10.0 mi Variable 4.6 mph - N/A   Clear
3:30 PM 69.8 °F - 35.6 °F 28% 29.94 in 10.0 mi East 5.8 mph - N/A   Clear
3:55 PM 69.8 °F - 35.6 °F 28% 29.93 in 10.0 mi ENE 4.6 mph - N/A   Clear
4:15 PM 68.0 °F - 37.4 °F 33% 29.93 in 10.0 mi ESE 3.5 mph - N/A   Clear
4:35 PM 68.0 °F - 37.4 °F 33% 29.92 in 10.0 mi East 3.5 mph - N/A   Clear
4:55 PM 68.0 °F - 39.2 °F 35% 29.92 in 10.0 mi East 3.5 mph - N/A   Clear
5:15 PM 66.2 °F - 41.0 °F 40% 29.92 in 10.0 mi Calm Calm - N/A   Clear
5:35 PM 64.4 °F - 42.8 °F 45% 29.92 in 10.0 mi Calm Calm - N/A   Clear
5:55 PM 62.6 °F - 42.8 °F 48% 29.91 in 10.0 mi SE 4.6 mph - N/A   Clear
6:15 PM 59.0 °F - 46.4 °F 63% 29.91 in 10.0 mi Calm Calm - N/A   Clear
6:35 PM 57.2 °F - 48.2 °F 72% 29.90 in 10.0 mi Calm Calm - N/A   Clear
7:15 PM 55.4 °F - 50.0 °F 82% 29.90 in 10.0 mi Calm Calm - N/A   Clear
7:35 PM 55.4 °F - 50.0 °F 82% 29.90 in 10.0 mi SSW 4.6 mph - N/A   Clear
7:55 PM 53.6 °F - 50.0 °F 88% 29.90 in 10.0 mi Calm Calm - N/A   Clear
8:15 PM 51.8 °F - 51.8 °F 100% 29.89 in 10.0 mi Calm Calm - N/A   Clear
8:35 PM 50.0 °F - 50.0 °F 100% 29.90 in 10.0 mi SSW 4.6 mph - N/A   Clear
8:55 PM 50.0 °F - 50.0 °F 100% 29.90 in 10.0 mi Calm Calm - N/A   Clear
9:15 PM 50.0 °F - 50.0 °F 100% 29.90 in 10.0 mi Calm Calm - N/A   Clear
9:35 PM 50.0 °F - 50.0 °F 100% 29.90 in 10.0 mi Calm Calm - N/A   Clear
9:55 PM 48.2 °F - 48.2 °F 100% 29.89 in 10.0 mi Calm Calm - N/A   Clear
10:15 PM 48.2 °F - 48.2 °F 100% 29.90 in 10.0 mi Calm Calm - N/A   Clear
10:35 PM 46.4 °F - 46.4 °F 100% 29.90 in 10.0 mi Calm Calm - N/A   Clear
10:55 PM 46.4 °F - 46.4 °F 100% 29.90 in 10.0 mi Calm Calm - N/A   Clear
11:15 PM 46.4 °F - 46.4 °F 100% 29.90 in 10.0 mi Calm Calm - N/A   Clear
11:35 PM 46.4 °F - 46.4 °F 100% 29.90 in 10.0 mi Calm Calm - N/A   Clear
11:55 PM 46.4 °F - 46.4 °F 100% 29.90 in 10.0 mi Calm Calm - N/A   Clear